Simultaneous Nadir Overpasses (SNOs) Predictions

Prediction of SNOs between NOAA-20 and NOAA-19 Satellite Orbit:

Table of predicted SNOs for the next 14.0 days since TLE Epoch: 8/24/2018
Index Date (NOAA-20) Time (NOAA-20) Lat,Lon (NOAA-20) SZA (NOAA-20 ) Date (NOAA-19) Time (NOAA-19) Lat,Lon (NOAA-19) SZA (NOAA-19 ) Distance(km) Time Diff (sec)
1 08/26/2018 08:49:07 80.45, 3.69 72.87 08/26/2018 08:48:05 80.46, 3.62 72.92 2.11 62
2 08/26/2018 09:39:53 -80.47, 170.62 107.06 08/26/2018 09:39:03 -80.45, 170.72 107.06 2.99 50
3 08/26/2018 10:30:37 80.45, -21.71 72.90 08/26/2018 10:30:06 80.46, -21.86 72.94 3.13 31
4 08/26/2018 11:21:22 -80.45, 145.55 107.09 08/26/2018 11:21:03 -80.47, 145.59 107.07 2.36 19
5 08/26/2018 12:12:08 80.47, -47.44 72.98 08/26/2018 12:12:07 80.46, -47.34 72.96 2.29 1
6 08/26/2018 13:02:52 -80.45, 120.15 107.06 08/26/2018 13:03:04 -80.47, 120.12 107.05 2.23 12
7 08/26/2018 13:53:38 80.48, -72.85 73.01 08/26/2018 13:54:08 80.46, -72.82 72.98 1.42 30
8 08/26/2018 14:44:22 -80.46, 94.75 107.03 08/26/2018 14:45:05 -80.47, 94.65 107.03 2.80 43
9 08/26/2018 15:35:08 80.48, -98.25 73.04 08/26/2018 15:36:09 80.47, -98.29 73.01 1.63 61




NCC Satellite Simultaneous Nadir Overpasses (SNOs) Prediction Service
